Location: Buchberg
(46.9333°N, 15.8500°E)
Time: 09:43:03
(UTC+00:00)

Okean 1-7 - Pass Details

Date: 14 July 2020
Orbit: 592 x 618 km, 82.5° (Epoch: 08 August)

Event Time Altitude Azimuth Distance (km) Brightness Sun altitude
Rises 01:12:12 0° 339° (NNW) 2,904 7.1 -15.5°
Reaches altitude 10° 01:14:43 10° 327° (NNW) 1,993 6.0 -15.2°
Maximum altitude 01:18:19 25° 272° (W) 1,257 4.4 -14.9°
Enters shadow 01:19:45 21° 242° (WSW) 1,396 4.4 -14.8°
